Location: Bacea
(45.9500°N, 22.6667°E)
Time: 23:42:27
(UTC+00:00)

Cosmos 1300 - Pass Details

Date: 03 June 2022
Orbit: 506 x 508 km, 82.5° (Epoch: 01 July)

Event Time Altitude Azimuth Distance (km) Brightness Sun altitude
Rises 22:18:47 0° 350° (N) 2,622 7.8 -21.6°
Reaches altitude 10° 22:20:55 10° 350° (N) 1,731 6.5 -21.6°
Maximum altitude 22:24:43 87° 262° (W) 514 2.5 -21.6°
Enters shadow 22:24:46 86° 226° (SW) 514 2.5 -21.6°
